Preview of NWS' New Version of Forecast
This preview is not operational and should not be used for support decisions.

Regional Weather Roundup (RWR)

Issued by National Weather Service (NWS)

                            
000
ASUS43 KTOP 220159
RWRKS 

WEATHER ROUNDUP FOR KANSAS
NATIONAL WEATHER SERVICE GOODLAND KS
900 PM CDT SUN APR 21 2019

NOTE:  "FAIR" INDICATES FEW OR NO CLOUDS BELOW 12,000 FEET WITH NO
SIGNIFICANT WEATHER AND/OR OBSTRUCTIONS TO VISIBILITY.

KSZ001>006-013>018-027>032-041>047-220300-
NORTHWEST KANSAS
  
CITY           SKY/WX    TMP DP  RH WIND       PRES   REMARKS
GOODLAND       CLOUDY    55  46  71 NW24G32   29.86F                  
HAYS           LGT RAIN  64  49  57 S12       29.76R                  
HILL CITY      CLOUDY    62  52  69 NW23G40   29.74S                  
RUSSELL        TSTM      60  53  77 N7        29.73R                  
$$

KSZ061>065-074>080-084>089-220300-
SOUTHWEST KANSAS
  
CITY           SKY/WX    TMP DP  RH WIND       PRES   REMARKS
DODGE CITY     PTCLDY    62  43  49 NE6       29.73R                  
GARDEN CITY    CLOUDY    63  43  48 N15       29.77R                  
GREAT BEND     CLOUDY    71  49  45 NW25G47   29.75R SQUALL           
LIBERAL        CLEAR     69  45  41 N20G28    29.76R                  
$$

KSZ066>073-081>083-090>101-220300-
SOUTHEAST KANSAS
  
CITY           SKY/WX    TMP DP  RH WIND       PRES   REMARKS
CHANUTE        CLOUDY    75  48  38 S16G24    29.83R                  
COFFEYVILLE    MOCLDY    75  48  38 S16G26    29.83R                  
HUTCHINSON     CLEAR     73  56  54 S20G30    29.71R                  
MEDICINE LODGE   N/A     72  60  66 S14G23    29.72R                  
NEWTON         CLEAR     73  55  53 S21       29.75R                  
PARSONS        CLOUDY    75  47  36 S10G20    29.84R                  
WICHITA INTL   PTCLDY    73  55  53 S14       29.75R                  
WICHITA JABRA  CLEAR     73  54  51 S14       29.76R                  
WICHITA MCCONL CLEAR     73  55  51 SE18      29.75R                  
WINFIELD       CLEAR     71  54  54 S15       29.79R                  
$$

KSZ007>012-019>026-033>040-048>060-102>105-220300-
NORTHEAST KANSAS
  
CITY           SKY/WX    TMP DP  RH WIND       PRES   REMARKS
CONCORDIA      PTCLDY    76  57  51 S22G30    29.67R                  
EMPORIA        PTCLDY    73  49  42 S24G37    29.75R                  
LAWRENCE       CLOUDY    76  46  34 S15G25    29.78R                  
MANHATTAN      CLOUDY    78  51  38 S10G21    29.71R                  
OLATHE IND     CLOUDY    73  50  44 S13       29.81R                  
OLATHE EXE     CLOUDY    73  48  41 S13       29.81R                  
SALINA         CLEAR     74  56  53 S14G28    29.70R                  
TOPEKA BILLARD CLOUDY    76  46  34 SE14      29.75R                  
TOPEKA FORBES  CLOUDY    75  46  35 S16       29.75R                  
$$